Weather History for Blackwell, OK

Change the Weather History Date:

Saturday, January 19, 2013

  Actual Average (KPNC) Record (KPNC)
Temperature  
Mean Temperature 48 °F -  
Max Temperature 64 °F 46 °F 73 °F (1951)
Min Temperature 32 °F 25 °F 1 °F (1956)
Degree Days  
Heating Degree Days 16    
Moisture  
Dew Point 28 °F    
Average Humidity 50    
Maximum Humidity 75    
Minimum Humidity 24    
Precipitation  
Precipitation 0.00 in - - ()
Sea Level Pressure  
Sea Level Pressure 30.11 in    
Wind  
Wind Speed 13 mph (WSW)    
Max Wind Speed 22 mph    
Max Gust Speed 30 mph    
Visibility 10 miles    
Events      
Averages and records for this station are not official NWS values.
T = Trace of Precipitation, MM = Missing Value Source: NWS Daily Summary

Daily Weather History Graph

Daily Weather History Graph

Search for Another Location

Airport:

Trip Planner

Search our weather history database for the weather conditions in past years. The results will help you decide how hot, cold, wet, or windy it might be!

Date:

Astronomy

Jan. 19, 2013 Rise Set
Actual Time 7:39 AM CST 5:41 PM CST
Civil Twilight 7:11 AM CST 6:09 PM CST
Nautical Twilight 6:39 AM CST 6:40 PM CST
Astronomical Twilight 6:08 AM CST 7:11 PM CST
Moon 12:06 PM CST (1/19) 1:17 AM CST (1/19)
Length of Visible Light 10h 57m
Length of Day
10h 01m
First Quarter, 57% of the Moon is Illuminated
Jan 19
First Quarter
Jan 26
Full
Feb 3
Last Quarter
Feb 10
New
Feb 17
First Quarter

Hourly Weather History & Observations

Time (CST) Temp. Windchill Dew Point Humidity Pressure Visibility Wind Dir Wind Speed Gust Speed Precip Events Conditions
12:15 AM 44.6 °F 36.9 °F 28.4 °F 53% 30.09 in 10.0 mi SSW 18.4 mph - N/A   Scattered Clouds
12:35 AM 44.6 °F 36.6 °F 28.4 °F 53% 30.08 in 10.0 mi SSW 19.6 mph 25.3 mph N/A   Clear
12:55 AM 46.4 °F 38.5 °F 28.4 °F 50% 30.08 in 10.0 mi SSW 21.9 mph 27.6 mph N/A   Clear
1:15 AM 46.4 °F 38.5 °F 28.4 °F 50% 30.08 in 10.0 mi SSW 21.9 mph 29.9 mph N/A   Partly Cloudy
1:35 AM 44.6 °F 36.6 °F 28.4 °F 53% 30.08 in 10.0 mi SSW 19.6 mph 27.6 mph N/A   Partly Cloudy
1:55 AM 44.6 °F 36.4 °F 28.4 °F 53% 30.07 in 10.0 mi SSW 20.7 mph 28.8 mph N/A   Clear
2:15 AM 44.6 °F 36.1 °F 28.4 °F 53% 30.07 in 10.0 mi SSW 21.9 mph 29.9 mph N/A   Partly Cloudy
2:35 AM 44.6 °F 36.9 °F 28.4 °F 53% 30.07 in 10.0 mi SSW 18.4 mph 25.3 mph N/A   Clear
2:55 AM 44.6 °F 36.1 °F 28.4 °F 53% 30.07 in 10.0 mi SSW 21.9 mph 28.8 mph N/A   Clear
3:15 AM 44.6 °F 36.6 °F 30.2 °F 57% 30.06 in 10.0 mi SSW 19.6 mph - N/A   Clear
3:35 AM 44.6 °F 36.4 °F 28.4 °F 53% 30.06 in 10.0 mi SSW 20.7 mph 27.6 mph N/A   Clear
3:55 AM 44.6 °F 36.4 °F 30.2 °F 57% 30.05 in 10.0 mi SSW 20.7 mph 25.3 mph N/A   Clear
4:15 AM 44.6 °F 36.6 °F 30.2 °F 57% 30.04 in 10.0 mi SSW 19.6 mph 24.2 mph N/A   Clear
4:35 AM 42.8 °F 34.8 °F 30.2 °F 61% 30.04 in 10.0 mi SSW 17.3 mph 26.5 mph N/A   Clear
4:55 AM 42.8 °F 34.5 °F 30.2 °F 61% 30.04 in 10.0 mi SSW 18.4 mph - N/A   Clear
5:15 AM 41.0 °F 33.5 °F 30.2 °F 65% 30.04 in 10.0 mi SSW 13.8 mph - N/A   Clear
5:35 AM 41.0 °F 33.5 °F 28.4 °F 61% 30.05 in 10.0 mi SSW 13.8 mph - N/A   Clear
5:55 AM 41.0 °F 33.9 °F 28.4 °F 61% 30.05 in 10.0 mi SSW 12.7 mph 19.6 mph N/A   Clear
7:15 AM 35.6 °F - 28.4 °F 75% 30.07 in 10.0 mi Calm Calm - N/A   Clear
7:55 AM 35.6 °F - 28.4 °F 75% 30.08 in 10.0 mi Calm Calm - N/A   Clear
8:15 AM 37.4 °F 34.9 °F 28.4 °F 70% 30.09 in 10.0 mi SSW 3.5 mph - N/A   Clear
8:35 AM 37.4 °F 34.9 °F 28.4 °F 70% 30.10 in 10.0 mi SSW 3.5 mph - N/A   Clear
9:55 AM 44.6 °F 40.2 °F 32.0 °F 61% 30.13 in 10.0 mi SW 8.1 mph - N/A   Clear
10:15 AM 46.4 °F 42.4 °F 32.0 °F 57% 30.13 in 10.0 mi SW 8.1 mph - N/A   Clear
10:35 AM 46.4 °F 41.9 °F 32.0 °F 57% 30.14 in 10.0 mi SW 9.2 mph - N/A   Clear
11:15 AM 50.0 °F - 32.0 °F 50% 30.13 in 10.0 mi SW 9.2 mph - N/A   Clear
11:35 AM 51.8 °F - 32.0 °F 47% 30.12 in 10.0 mi SW 8.1 mph - N/A   Clear
11:55 AM 53.6 °F - 32.0 °F 44% 30.11 in 10.0 mi SW 10.4 mph - N/A   Clear
12:15 PM 53.6 °F - 30.2 °F 41% 30.09 in 10.0 mi SSW 8.1 mph - N/A   Clear
12:35 PM 55.4 °F - 30.2 °F 38% 30.09 in 10.0 mi WSW 6.9 mph - N/A   Clear
12:55 PM 55.4 °F - 32.0 °F 41% 30.08 in 10.0 mi SW 8.1 mph - N/A   Clear
1:15 PM 57.2 °F - 30.2 °F 36% 30.08 in 10.0 mi SW 6.9 mph - N/A   Clear
1:35 PM 57.2 °F - 30.2 °F 36% 30.07 in 10.0 mi SSW 6.9 mph - N/A   Clear
1:55 PM 59.0 °F - 30.2 °F 34% 30.07 in 10.0 mi SW 8.1 mph - N/A   Clear
2:15 PM 59.0 °F - 30.2 °F 34% 30.07 in 10.0 mi SW 4.6 mph - N/A   Clear
2:35 PM 60.8 °F - 30.2 °F 31% 30.07 in 10.0 mi WSW 5.8 mph - N/A   Clear
2:55 PM 60.8 °F - 30.2 °F 31% 30.08 in 10.0 mi West 8.1 mph - N/A   Clear
3:15 PM 62.6 °F - 30.2 °F 30% 30.08 in 10.0 mi West 8.1 mph - N/A   Clear
3:35 PM 62.6 °F - 28.4 °F 27% 30.08 in 10.0 mi WSW 4.6 mph - N/A   Clear
3:55 PM 62.6 °F - 28.4 °F 27% 30.09 in 10.0 mi Calm Calm - N/A   Clear
4:15 PM 64.4 °F - 26.6 °F 24% 30.09 in 10.0 mi NW 8.1 mph - N/A   Clear
4:35 PM 62.6 °F - 26.6 °F 26% 30.10 in 10.0 mi NNW 9.2 mph - N/A   Clear
4:55 PM 62.6 °F - 24.8 °F 24% 30.11 in 10.0 mi NNW 10.4 mph - N/A   Clear
5:15 PM 59.0 °F - 26.6 °F 29% 30.12 in 10.0 mi NNW 9.2 mph - N/A   Clear
5:35 PM 55.4 °F - 24.8 °F 31% 30.12 in 10.0 mi NNW 9.2 mph - N/A   Clear
5:55 PM 51.8 °F - 24.8 °F 35% 30.13 in 10.0 mi NNW 8.1 mph - N/A   Clear
6:15 PM 48.2 °F - 24.8 °F 40% 30.13 in 10.0 mi North 6.9 mph - N/A   Clear
6:35 PM 46.4 °F 42.4 °F 24.8 °F 43% 30.14 in 10.0 mi NNW 8.1 mph - N/A   Clear
6:55 PM 42.8 °F 37.5 °F 24.8 °F 49% 30.15 in 10.0 mi North 9.2 mph - N/A   Clear
7:15 PM 41.0 °F 35.8 °F 24.8 °F 53% 30.15 in 10.0 mi North 8.1 mph - N/A   Clear
7:35 PM 41.0 °F 36.4 °F 24.8 °F 53% 30.17 in 10.0 mi North 6.9 mph - N/A   Clear
7:55 PM 39.2 °F 33.0 °F 24.8 °F 56% 30.17 in 10.0 mi North 9.2 mph - N/A   Clear
8:15 PM 39.2 °F 35.0 °F 24.8 °F 56% 30.18 in 10.0 mi North 5.8 mph - N/A   Clear
8:35 PM 41.0 °F 39.0 °F 24.8 °F 53% 30.19 in 10.0 mi WSW 3.5 mph - N/A   Clear
8:55 PM 39.2 °F 37.0 °F 24.8 °F 56% 30.20 in 10.0 mi NNW 3.5 mph - N/A   Clear
9:15 PM 37.4 °F 33.8 °F 24.8 °F 60% 30.20 in 10.0 mi NNW 4.6 mph - N/A   Clear
9:35 PM 37.4 °F - 23.0 °F 56% 30.20 in 10.0 mi Calm Calm - N/A   Clear
9:55 PM 41.0 °F 38.0 °F 24.8 °F 53% 30.21 in 10.0 mi NNW 4.6 mph - N/A   Clear
10:15 PM 37.4 °F 32.8 °F 24.8 °F 60% 30.21 in 10.0 mi NNW 5.8 mph - N/A   Clear
10:35 PM 33.8 °F 28.6 °F 23.0 °F 65% 30.22 in 10.0 mi North 5.8 mph - N/A   Clear
10:55 PM 35.6 °F 32.8 °F 23.0 °F 60% 30.22 in 10.0 mi NNE 3.5 mph - N/A   Clear
11:15 PM 37.4 °F 32.8 °F 23.0 °F 56% 30.22 in 10.0 mi NNE 5.8 mph - N/A   Clear
11:35 PM 37.4 °F 32.1 °F 24.8 °F 60% 30.22 in 10.0 mi North 6.9 mph - N/A   Clear
11:55 PM 32.0 °F 26.4 °F 23.0 °F 69% 30.22 in 10.0 mi North 5.8 mph - N/A   Clear